"Period start","avg(HW err(1)/warn(2) (#))","avg(Visibility (m))","avg(Weather code (#))","avg(Precip intensity (mm/h))","min(HW err(1)/warn(2) (#))","max(HW err(1)/warn(2) (#))","std(HW err(1)/warn(2) (#))","med(HW err(1)/warn(2) (#))","min(Visibility (m))","max(Visibility (m))","std(Visibility (m))","med(Visibility (m))","min(Weather code (#))","max(Weather code (#))","std(Weather code (#))","med(Weather code (#))","min(Precip intensity (mm/h))","max(Precip intensity (mm/h))","std(Precip intensity (mm/h))","med(Precip intensity (mm/h))"
2013-07-11 00:00:00,2,49106,0,0.00,2,2,0,2,45958,50000,1259,49768,0,0,0,0,0.00,0.00,0.00,0.00
2013-07-11 00:10:00,2,48285,0,0.00,2,2,0,2,44363,50000,2231,50000,0,0,0,0,0.00,0.00,0.00,0.00
2013-07-11 00:20:00,2,43122,0,0.00,2,2,0,2,36149,50000,4852,42407,0,0,0,0,0.00,0.00,0.00,0.00
2013-07-11 00:30:00,2,32758,18,3.31,2,2,0,2,8968,47753,14737,39328,0,62,28,0,0.00,18.85,6.26,0.00
2013-07-11 00:40:00,2,9372,62,15.43,2,2,0,2,7837,11453,1110,8918,61,62,0,62,8.30,24.55,4.69,16.57
2013-07-11 00:50:00,2,6888,62,20.73,2,2,0,2,4729,8502,1003,6965,62,62,0,62,11.05,28.60,4.96,20.22
2013-07-11 01:00:00,2,7928,62,18.62,2,2,0,2,4666,10265,1699,8046,62,62,0,62,12.35,29.00,5.39,17.05
2013-07-11 01:10:00,2,6771,62,30.59,2,2,0,2,4620,9534,1233,6740,62,63,0,62,17.50,46.05,9.45,29.85
2013-07-11 01:20:00,2,5688,62,40.02,2,2,0,2,4246,7663,1221,5492,62,63,0,62,25.80,67.95,13.38,34.60
2013-07-11 01:30:00,2,8597,62,21.11,2,2,0,2,7154,10342,993,8356,62,62,0,62,11.55,37.10,6.95,20.30
2013-07-11 01:40:00,2,11926,61,10.02,2,2,0,2,8885,13630,1276,12273,61,62,0,61,5.15,15.80,3.84,9.18
2013-07-11 01:50:00,2,11945,61,5.87,2,2,0,2,10080,13701,957,11760,61,62,0,61,2.25,11.75,2.85,5.47
2013-07-11 02:00:00,2,14089,61,3.21,2,2,0,2,11882,17940,1520,13848,61,61,0,61,1.25,5.40,1.06,2.98
2013-07-11 02:10:00,2,12702,61,5.26,2,2,0,2,10878,15681,1561,12375,61,61,0,61,3.30,8.45,1.55,5.33
2013-07-11 02:20:00,2,11364,61,4.70,2,2,0,2,9705,12640,767,11317,61,61,0,61,3.20,7.60,1.27,4.30
2013-07-11 02:30:00,2,14364,61,4.15,2,2,0,2,11732,20649,2782,13306,61,61,0,61,2.20,6.60,1.47,3.90
2013-07-11 02:40:00,2,12877,61,2.67,2,2,0,2,11797,14808,979,12644,61,61,0,61,2.05,3.15,0.33,2.75
2013-07-11 02:50:00,2,11378,61,5.15,2,2,0,2,10274,12450,788,11563,61,61,0,61,2.95,8.45,1.59,5.10
2013-07-11 03:00:00,2,12806,61,3.42,2,2,0,2,10679,19762,2425,12306,61,61,0,61,2.20,6.55,1.19,3.23
2013-07-11 03:10:00,2,18246,61,2.31,2,2,0,2,15264,20886,1668,18571,61,61,0,61,1.00,3.50,0.86,2.30
2013-07-11 03:20:00,2,19132,61,3.67,2,2,0,2,14064,25328,3586,18993,61,61,0,61,1.25,5.25,1.34,4.15
2013-07-11 03:30:00,2,15637,61,3.08,2,2,0,2,12458,18394,1927,15656,61,61,0,61,1.05,6.25,1.70,3.10
2013-07-11 03:40:00,2,17039,61,1.17,2,2,0,2,13395,20694,2495,16653,61,61,0,61,0.65,2.35,0.49,1.12
2013-07-11 03:50:00,2,15554,72,2.32,2,2,0,2,9991,23345,3901,16504,61,89,14,61,1.75,2.90,0.40,2.35
2013-07-11 04:00:00,2,14175,61,2.27,2,2,0,2,10201,18364,2150,14236,61,61,0,61,1.30,5.25,1.12,2.02
2013-07-11 04:10:00,2,14098,61,3.39,2,2,0,2,10912,17742,1961,13912,61,61,0,61,1.95,5.40,1.13,3.35
2013-07-11 04:20:00,2,12110,61,6.44,2,2,0,2,10085,13965,1140,12277,61,61,0,61,4.30,9.30,1.39,6.35
2013-07-11 04:30:00,2,11939,61,7.32,2,2,0,2,9445,14626,1553,12362,61,62,0,61,2.70,15.30,3.58,7.05
2013-07-11 04:40:00,2,15416,61,7.95,2,2,0,2,5548,22922,5336,16428,61,62,0,61,2.05,25.60,7.05,5.22
"Period start","avg(HW err(1)/warn(2) (#))","avg(Visibility (m))","avg(Weather code (#))","avg(Precip intensity (mm/h))","min(HW err(1)/warn(2) (#))","max(HW err(1)/warn(2) (#))","std(HW err(1)/warn(2) (#))","med(HW err(1)/warn(2) (#))","min(Visibility (m))","max(Visibility (m))","std(Visibility (m))","med(Visibility (m))","min(Weather code (#))","max(Weather code (#))","std(Weather code (#))","med(Weather code (#))","min(Precip intensity (mm/h))","max(Precip intensity (mm/h))","std(Precip intensity (mm/h))","med(Precip intensity (mm/h))"
2013-07-11 04:50:00,2,13172,61,6.28,2,2,0,2,9607,17293,2987,11839,61,61,0,61,2.55,8.80,2.21,6.20
2013-07-11 05:00:00,2,8237,62,14.96,2,2,0,2,6028,10302,1380,8342,61,62,0,62,3.05,22.10,6.25,17.55
2013-07-11 05:10:00,2,7800,62,15.61,2,2,0,2,6134,9822,1080,7626,61,62,0,62,8.55,25.75,5.10,13.20
2013-07-11 05:20:00,2,8272,62,16.97,2,2,0,2,7025,9505,747,8176,61,62,0,62,9.55,28.45,6.62,17.20
2013-07-11 05:30:00,2,8060,62,11.93,2,2,0,2,6782,9657,919,7908,61,62,0,62,6.40,25.40,4.99,10.38
2013-07-11 05:40:00,2,8460,61,6.01,2,2,0,2,6946,10413,1208,8353,61,61,0,61,3.50,9.75,2.01,5.40
2013-07-11 05:50:00,2,6885,62,11.81,2,2,0,2,5989,8030,537,6836,61,62,0,62,3.95,22.75,5.54,10.47
2013-07-11 06:00:00,2,6132,62,17.70,2,2,0,2,4693,7458,802,6380,61,62,0,62,8.85,29.75,5.98,19.02
2013-07-11 06:10:00,2,8596,62,17.43,2,2,0,2,5631,11905,2138,8630,61,62,0,62,7.90,35.00,8.79,14.40
2013-07-11 06:20:00,2,8464,62,16.95,2,2,0,2,5001,12882,2522,8436,61,63,1,62,6.45,46.45,11.67,12.15
2013-07-11 06:30:00,2,9445,61,9.88,2,2,0,2,7622,11118,1093,9120,61,62,0,61,5.20,24.30,5.53,7.32
2013-07-11 06:40:00,2,8958,61,7.21,2,2,0,2,7641,10488,1048,8542,61,62,0,61,4.75,11.70,1.88,6.90
2013-07-11 06:50:00,2,8773,61,5.83,2,2,0,2,6929,11896,1703,8195,61,62,0,61,2.75,10.15,2.28,5.75
2013-07-11 07:00:00,2,8403,61,8.52,2,2,0,2,6895,9895,746,8331,61,62,0,61,5.50,10.60,1.75,8.95
2013-07-11 07:10:00,2,8080,61,4.42,2,2,0,2,6161,11230,1386,7898,61,61,0,61,2.55,8.40,1.71,3.48
2013-07-11 07:20:00,2,10314,61,3.26,2,2,0,2,8512,13287,1389,10238,61,61,0,61,1.25,5.00,1.47,3.35
2013-07-11 07:30:00,2,13460,60,0.84,2,2,0,2,10994,20177,2595,12618,52,61,3,61,0.30,1.60,0.41,0.83
2013-07-11 07:40:00,2,12318,51,0.40,2,2,0,2,9395,15220,1729,12074,51,52,0,51,0.10,0.70,0.22,0.30
2013-07-11 07:50:00,2,18365,51,0.42,2,2,0,2,9703,35966,6999,16512,51,52,0,51,0.20,0.90,0.21,0.38
2013-07-11 08:00:00,2,14647,56,2.23,0,2,1,2,7937,25549,6488,13367,51,61,5,56,0.20,8.25,2.86,1.20
2013-07-11 08:10:00,2,7378,61,7.04,2,2,0,2,5185,9441,1450,7144,61,62,0,61,2.15,11.25,2.95,7.38
2013-07-11 08:20:00,2,5931,61,6.36,2,2,0,2,4592,8233,1287,5390,61,62,0,61,1.85,13.10,3.15,6.38
2013-07-11 08:30:00,2,6700,61,3.18,2,2,0,2,5342,8376,839,6546,61,61,0,61,1.70,5.70,1.08,2.90
2013-07-11 08:40:00,2,8248,59,1.61,2,2,0,2,5492,11346,1689,8280,52,61,4,61,0.60,4.15,0.95,1.35
2013-07-11 08:50:00,2,5810,61,10.71,2,2,0,2,4534,7337,778,5698,52,62,3,62,2.80,21.80,4.82,9.93
2013-07-11 09:00:00,2,8122,61,5.83,2,2,0,2,5223,10255,1826,8742,61,62,0,61,2.40,15.90,3.99,4.65
2013-07-11 09:10:00,2,10462,61,3.24,2,2,0,2,7377,13020,1686,10298,61,61,0,61,1.50,5.10,1.08,3.28
2013-07-11 09:20:00,2,15695,61,1.04,2,2,0,2,11827,19745,2344,15875,61,61,0,61,0.30,3.15,0.83,0.83
2013-07-11 09:30:00,2,14865,55,0.34,2,2,0,2,10451,19492,2756,15139,51,61,5,51,0.15,0.70,0.17,0.30
2013-07-11 09:40:00,2,23993,51,0.32,2,2,0,2,18855,36173,5045,22440,51,51,0,51,0.10,1.10,0.28,0.20
2013-07-11 09:50:00,2,37708,51,0.23,2,2,0,2,25208,50000,8829,38990,51,51,0,51,0.10,1.00,0.26,0.10
2013-07-11 10:00:00,2,35017,51,0.11,2,2,0,2,25398,42633,4589,35124,51,51,0,51,0.05,0.15,0.04,0.10
2013-07-11 10:10:00,2,41320,53,0.08,2,2,0,2,29380,50000,6263,42321,51,61,4,51,0.00,0.15,0.04,0.10
2013-07-11 10:20:00,2,35108,57,0.11,2,2,0,2,24563,41991,5186,35328,51,61,5,61,0.05,0.20,0.04,0.10
2013-07-11 10:30:00,2,36590,51,0.57,2,2,0,2,24829,46932,6377,37624,51,51,0,51,0.20,1.35,0.35,0.47
2013-07-11 10:40:00,2,18586,59,1.04,2,2,0,2,15345,25100,2750,17932,51,61,4,61,0.30,1.75,0.47,1.08
2013-07-11 10:50:00,2,13681,56,0.74,2,2,0,2,12591,16685,1362,13174,52,61,4,56,0.35,0.95,0.21,0.75
2013-07-11 11:00:00,2,16086,52,0.58,2,2,0,2,13884,19750,1734,15934,51,61,3,52,0.15,1.30,0.33,0.50
2013-07-11 11:10:00,2,13011,52,0.58,2,2,0,2,9900,16640,2094,12954,52,52,0,52,0.45,0.80,0.11,0.55
2013-07-11 11:20:00,2,14651,60,0.20,2,2,0,2,12638,17384,1313,14538,52,61,3,61,0.05,0.40,0.09,0.20
2013-07-11 11:30:00,2,12288,52,0.14,2,2,0,2,8381,15108,1981,13070,51,61,3,51,0.10,0.25,0.05,0.12
2013-07-11 11:40:00,2,10436,51,0.14,2,2,0,2,9265,12329,1039,10228,51,51,0,51,0.05,0.30,0.07,0.10
2013-07-11 11:50:00,2,6713,54,0.18,2,2,0,2,2159,9377,2552,7688,51,61,5,51,0.05,0.35,0.10,0.12
2013-07-11 12:00:00,2,6255,51,0.21,2,2,0,2,2259,8904,2340,7090,41,61,6,51,0.10,0.40,0.08,0.20
2013-07-11 12:10:00,2,5756,51,0.32,2,2,0,2,1197,10557,3058,5585,51,52,0,51,0.10,0.70,0.21,0.25
2013-07-11 12:20:00,2,11922,39,0.04,2,2,0,2,8564,16689,2627,11030,0,61,26,56,0.00,0.10,0.04,0.03
2013-07-11 12:30:00,2,8426,1,0.00,2,2,0,2,2497,9879,2137,9288,0,10,3,0,0.00,0.00,0.00,0.00
2013-07-11 12:40:00,2,10936,10,0.00,2,2,0,2,2252,21792,7402,10490,10,10,0,10,0.00,0.00,0.00,0.00
2013-07-11 12:50:00,2,14881,5,0.00,2,2,0,2,5779,28532,7924,13654,0,10,5,5,0.00,0.00,0.00,0.00
2013-07-11 13:00:00,2,30428,0,0.00,2,2,0,2,10658,39941,8079,31967,0,0,0,0,0.00,0.00,0.00,0.00
2013-07-11 13:10:00,2,599,19,0.00,2,2,0,2,389,1311,284,469,0,34,13,10,0.00,0.00,0.00,0.00
2013-07-11 13:20:00,2,578,34,0.00,2,2,0,2,400,894,175,524,34,34,0,34,0.00,0.00,0.00,0.00
2013-07-11 13:30:00,2,5066,30,0.00,2,2,0,2,1746,8666,2557,5014,20,34,6,34,0.00,0.00,0.00,0.00
2013-07-11 13:40:00,2,3794,21,0.00,2,2,0,2,373,13666,4225,1530,20,34,4,20,0.00,0.00,0.00,0.00
2013-07-11 13:50:00,2,5116,34,0.00,2,2,0,2,397,28410,8481,826,34,34,0,34,0.00,0.00,0.00,0.00
2013-07-11 14:00:00,2,626,33,0.00,2,2,0,2,430,872,141,568,30,34,1,33,0.00,0.00,0.00,0.00
2013-07-11 14:10:00,2,608,33,0.00,2,2,0,2,302,970,208,614,32,34,1,32,0.00,0.00,0.00,0.00
2013-07-11 14:20:00,2,270,34,0.00,2,2,0,2,257,291,9,270,34,34,0,34,0.00,0.00,0.00,0.00
2013-07-11 14:30:00,2,417,34,0.00,2,2,0,2,255,852,180,342,34,34,0,34,0.00,0.00,0.00,0.00
2013-07-11 14:40:00,2,4674,31,0.00,2,2,0,2,1122,15560,4159,3275,20,34,6,34,0.00,0.00,0.00,0.00
2013-07-11 14:50:00,2,1655,20,0.00,2,2,0,2,570,4092,1045,1406,20,20,0,20,0.00,0.00,0.00,0.00
2013-07-11 15:00:00,2,30086,20,0.00,2,2,0,2,1197,50000,21101,39855,20,20,0,20,0.00,0.00,0.00,0.00
2013-07-11 15:10:00,2,50000,20,0.00,2,2,0,2,50000,50000,0,50000,20,20,0,20,0.00,0.00,0.00,0.00
2013-07-11 15:20:00,2,50000,20,0.00,2,2,0,2,50000,50000,0,50000,20,20,0,20,0.00,0.00,0.00,0.00
2013-07-11 15:30:00,2,50000,20,0.00,2,2,0,2,50000,50000,0,50000,20,20,0,20,0.00,0.00,0.00,0.00
2013-07-11 15:40:00,2,50000,16,0.00,2,2,0,2,50000,50000,0,50000,0,20,8,20,0.00,0.00,0.00,0.00
2013-07-11 15:50:00,2,50000,0,0.00,0,2,1,2,50000,50000,0,50000,0,0,0,0,0.00,0.00,0.00,0.00
2013-07-11 16:00:00,2,50000,0,0.00,2,2,0,2,50000,50000,0,50000,0,0,0,0,0.00,0.00,0.00,0.00
2013-07-11 16:10:00,2,50000,0,0.00,0,2,1,2,50000,50000,0,50000,0,0,0,0,0.00,0.00,0.00,0.00
2013-07-11 16:20:00,2,50000,0,0.00,0,2,1,2,50000,50000,0,50000,0,0,0,0,0.00,0.00,0.00,0.00
2013-07-11 16:30:00,2,50000,0,0.00,0,2,1,2,50000,50000,0,50000,0,0,0,0,0.00,0.00,0.00,0.00
2013-07-11 16:40:00,2,49973,0,0.00,2,2,0,2,49727,50000,82,50000,0,0,0,0,0.00,0.00,0.00,0.00
2013-07-11 16:50:00,2,38678,0,0.00,0,2,1,2,24116,50000,7773,38766,0,0,0,0,0.00,0.00,0.00,0.00
2013-07-11 17:00:00,2,49822,0,0.00,0,2,1,2,48223,50000,533,50000,0,0,0,0,0.00,0.00,0.00,0.00
2013-07-11 17:10:00,2,50000,0,0.00,2,2,0,2,50000,50000,0,50000,0,0,0,0,0.00,0.00,0.00,0.00
2013-07-11 17:20:00,2,50000,0,0.00,2,2,0,2,50000,50000,0,50000,0,0,0,0,0.00,0.00,0.00,0.00
2013-07-11 17:30:00,2,50000,0,0.00,2,2,0,2,50000,50000,0,50000,0,0,0,0,0.00,0.00,0.00,0.00
2013-07-11 17:40:00,2,50000,0,0.00,2,2,0,2,50000,50000,0,50000,0,0,0,0,0.00,0.00,0.00,0.00
2013-07-11 17:50:00,2,49955,0,0.00,2,2,0,2,49551,50000,135,50000,0,0,0,0,0.00,0.00,0.00,0.00
2013-07-11 18:00:00,2,50000,0,0.00,2,2,0,2,50000,50000,0,50000,0,0,0,0,0.00,0.00,0.00,0.00
2013-07-11 18:10:00,2,50000,0,0.00,2,2,0,2,50000,50000,0,50000,0,0,0,0,0.00,0.00,0.00,0.00
2013-07-11 18:20:00,2,50000,0,0.00,2,2,0,2,50000,50000,0,50000,0,0,0,0,0.00,0.00,0.00,0.00
2013-07-11 18:30:00,2,50000,0,0.00,0,2,1,2,50000,50000,0,50000,0,0,0,0,0.00,0.00,0.00,0.00
2013-07-11 18:40:00,2,50000,0,0.00,0,2,1,2,50000,50000,0,50000,0,0,0,0,0.00,0.00,0.00,0.00
2013-07-11 18:50:00,2,50000,0,0.00,2,2,0,2,50000,50000,0,50000,0,0,0,0,0.00,0.00,0.00,0.00
2013-07-11 19:00:00,2,49673,0,0.00,0,2,1,2,46727,50000,982,50000,0,0,0,0,0.00,0.00,0.00,0.00
2013-07-11 19:10:00,2,34854,0,0.00,0,2,1,2,19057,50000,10422,35866,0,0,0,0,0.00,0.00,0.00,0.00
2013-07-11 19:20:00,1,31887,0,0.00,0,2,1,2,13836,50000,13198,27672,0,0,0,0,0.00,0.00,0.00,0.00
2013-07-11 19:30:00,2,39252,0,0.00,2,2,0,2,24914,50000,10138,44194,0,0,0,0,0.00,0.00,0.00,0.00
2013-07-11 19:40:00,2,31926,0,0.00,2,2,0,2,16033,50000,13179,31320,0,0,0,0,0.00,0.00,0.00,0.00
2013-07-11 19:50:00,2,42558,0,0.00,2,2,0,2,19337,50000,11124,48662,0,0,0,0,0.00,0.00,0.00,0.00
2013-07-11 20:00:00,2,49932,0,0.00,2,2,0,2,49319,50000,204,50000,0,0,0,0,0.00,0.00,0.00,0.00
2013-07-11 20:10:00,2,49616,0,0.00,2,2,0,2,48484,50000,537,49906,0,0,0,0,0.00,0.00,0.00,0.00
2013-07-11 20:20:00,2,49775,0,0.00,2,2,0,2,48723,50000,413,50000,0,0,0,0,0.00,0.00,0.00,0.00
2013-07-11 20:30:00,2,50000,0,0.00,2,2,0,2,50000,50000,0,50000,0,0,0,0,0.00,0.00,0.00,0.00
2013-07-11 20:40:00,2,34823,0,0.00,2,2,0,2,9687,50000,16757,43623,0,0,0,0,0.00,0.00,0.00,0.00
2013-07-11 20:50:00,2,9454,0,0.00,2,2,0,2,7210,14408,2345,8101,0,0,0,0,0.00,0.00,0.00,0.00
2013-07-11 21:00:00,2,44874,0,0.00,2,2,0,2,25278,50000,7937,49192,0,0,0,0,0.00,0.00,0.00,0.00
2013-07-11 21:10:00,2,47858,0,0.00,2,2,0,2,39188,50000,3412,50000,0,0,0,0,0.00,0.00,0.00,0.00
2013-07-11 21:20:00,2,49957,0,0.00,2,2,0,2,49568,50000,130,50000,0,0,0,0,0.00,0.00,0.00,0.00
2013-07-11 21:30:00,2,49878,0,0.00,2,2,0,2,49307,50000,246,50000,0,0,0,0,0.00,0.00,0.00,0.00
2013-07-11 21:40:00,2,48766,0,0.00,2,2,0,2,42467,50000,2542,50000,0,0,0,0,0.00,0.00,0.00,0.00
2013-07-11 21:50:00,2,50000,0,0.00,2,2,0,2,50000,50000,0,50000,0,0,0,0,0.00,0.00,0.00,0.00
2013-07-11 22:00:00,2,49392,0,0.00,2,2,0,2,46468,50000,1076,50000,0,0,0,0,0.00,0.00,0.00,0.00
2013-07-11 22:10:00,2,46794,0,0.00,2,2,0,2,24037,50000,7702,49831,0,0,0,0,0.00,0.00,0.00,0.00
2013-07-11 22:20:00,2,24992,0,0.00,0,2,1,2,13487,48773,11752,18800,0,0,0,0,0.00,0.00,0.00,0.00
2013-07-11 22:30:00,2,49869,0,0.00,2,2,0,2,48692,50000,392,50000,0,0,0,0,0.00,0.00,0.00,0.00
2013-07-11 22:40:00,2,49323,0,0.00,2,2,0,2,46724,50000,1292,50000,0,0,0,0,0.00,0.00,0.00,0.00
2013-07-11 22:50:00,2,49225,0,0.00,2,2,0,2,47524,50000,972,49909,0,0,0,0,0.00,0.00,0.00,0.00
2013-07-11 23:00:00,0,49623,0,0.00,0,2,1,0,46526,50000,1036,50000,0,0,0,0,0.00,0.00,0.00,0.00
2013-07-11 23:10:00,0,49467,0,0.00,0,2,1,0,45868,50000,1252,50000,0,0,0,0,0.00,0.00,0.00,0.00
2013-07-11 23:20:00,1,49187,0,0.00,0,2,1,0,43495,50000,1958,50000,0,0,0,0,0.00,0.00,0.00,0.00
2013-07-11 23:30:00,1,48108,0,0.00,0,2,1,2,43159,50000,2387,48859,0,0,0,0,0.00,0.00,0.00,0.00
2013-07-11 23:40:00,0,49701,0,0.00,0,2,1,0,47013,50000,896,50000,0,0,0,0,0.00,0.00,0.00,0.00
2013-07-11 23:50:00,1,48894,0,0.00,0,2,1,2,44690,50000,2028,50000,0,0,0,0,0.00,0.00,0.00,0.00
